Location: Bois Neuf
(42.7667°N, 0.6333°E)
Time: 21:44:32
(UTC+00:00)

Cosmos 1937 Rocket - Pass Details

Date: 25 September 2020
Orbit: 747 x 779 km, 74.0° (Epoch: 26 October)

Event Time Altitude Azimuth Distance (km) Brightness Sun altitude
Rises 19:31:26 0° 260° (W) 3,227 7.8 -19.4°
Reaches altitude 10° 19:36:05 10° 298° (WNW) 2,297 7.1 -20.2°
Maximum altitude 19:37:16 11° 311° (NW) 2,247 6.9 -20.4°
Drops below altitude 10° 19:38:27 10° 325° (NW) 2,295 6.7 -20.7°
Sets 19:43:06 0° 3° (N) 3,217 6.9 -21.5°
